Hourly Data Report for October 08, 2013

All times are specified in Local Standard Time (LST). Add 1 hour to adjust for Daylight Saving Time where and when it is observed.

FREDERICTON
NEW BRUNSWICK

45°52'08.000" N
66°32'14.000" W
20.70 m
8101505
71700
YFC

Download Data

Hourly Data (October 2013)
Hourly Data Report for October 8, 2013
Temp Definition
°C
Dew Point Temp Definition
°C
Rel Hum Definition
%
Wind Dir Definition
10's deg

Wind Spd Definition
km/h
Visibility Definition
km
Stn Press Definition
kPa
Hmdx Definition


Wind Chill Definition


Weather Definition


TIME
00:00 Legend Double Dagger 17.7 16.7 94 17 24 16.1 100.76     LegendNANA
01:00 Legend Double Dagger 18.3 17.0 92 18 35 16.1 100.64     LegendNANA
02:00 Legend Double Dagger 18.5 17.0 91 18 39 16.1 100.53     LegendNANA
03:00 Legend Double Dagger 17.9 17.3 96 18 22 3.6 100.52     LegendNANA
04:00 Legend Double Dagger 12.1 11.2 94 29 15 8.1 100.71     LegendNANA
05:00 Legend Double Dagger 11.6 10.8 95 23 8 6.4 100.83     LegendNANA
06:00 Legend Double Dagger 11.6 11.1 97 19 9 16.1 100.89     LegendNANA
07:00 Legend Double Dagger 11.9 11.4 97 19 11 16.1 100.94     LegendNANA
08:00 Legend Double Dagger 12.0 11.4 96 22 11 16.1 101.03     LegendNANA
09:00 Legend Double Dagger 13.5 11.0 85 26 15 16.1 101.17     LegendNANA
10:00 Legend Double Dagger 13.7 8.2 69 27 21 16.1 101.30     LegendNANA
11:00 Legend Double Dagger 13.7 5.7 58 28 26 16.1 101.42     LegendNANA
12:00 Legend Double Dagger 14.6 5.7 55 26 17 16.1 101.49     LegendNANA
13:00 Legend Double Dagger 14.5 4.2 50 28 24 16.1 101.55     LegendNANA
14:00 Legend Double Dagger 14.9 3.5 46 27 24 16.1 101.62     LegendNANA
15:00 Legend Double Dagger 14.8 3.1 45 30 22 16.1 101.66     LegendNANA
16:00 Legend Double Dagger 14.6 2.1 43 28 18 16.1 101.76     LegendNANA
17:00 Legend Double Dagger 13.9 1.8 44 28 15 16.1 101.85     LegendNANA
18:00 Legend Double Dagger 11.9 2.1 51 27 8 16.1 102.02     LegendNANA
19:00 Legend Double Dagger 10.0 3.8 65 25 9 16.1 102.12     LegendNANA
20:00 Legend Double Dagger 7.7 4.3 79 27 5 16.1 102.24     LegendNANA
21:00 Legend Double Dagger 6.2 3.7 84 27 4 16.1 102.30     LegendNANA
22:00 Legend Double Dagger 5.1 2.8 85 26 8 16.1 102.36     LegendNANA
23:00 Legend Double Dagger 2.1 1.5 96 25 8 16.1 102.43     LegendNANA

Notes on Data Quality.

Legend

  • E = Estimated
  • M = Missing
  • NA = Not Available
  • ‡ = Partner data that is not subject to review by the National Climate Archives
Date modified: